Regional Weather Roundup
Issued by NWS Charleston, WV

Home | Current Version | Previous Version | Graphics & Text | Print | Product List | Glossary On
Versions: 1 2 3 4 5 6 7 8 9 10 11 12 13 14 15 16 17 18 19 20 21 22 23 24 25 26 27 28 29 30 31 32 33 34 35 36 37 38 39 40 41 42 43 44 45 46 47 48 49 50
254
ASUS41 KRLX 010710
RWRRLX
West Virginia Regional Weather Roundup
National Weather Service Charleston WV
300 AM EDT SUN MAY 01 2016

Note: "fair" indicates few or no clouds below 12,000 feet with no
significant weather and/or obstructions to visibility.

WVZ003-010800-
Northern Panhandle of West Virginia

CITY           SKY/WX    TMP DP  RH WIND       PRES   REMARKS
WHEELING       LGT RAIN  59  56  89 SW9       29.92F
$$

WVZ009-010800-
Northwest West Virginia

CITY           SKY/WX    TMP DP  RH WIND       PRES   REMARKS
PARKERSBURG    LGT RAIN  61  59  93 S9        29.95F
$$

WVZ006-010800-
Western West Virginia

CITY           SKY/WX    TMP DP  RH WIND       PRES   REMARKS
HUNTINGTON     RAIN      62  60  93 S6        29.95F FOG
$$

WVZ015-010800-
West Central West Virginia

CITY           SKY/WX    TMP DP  RH WIND       PRES   REMARKS
CHARLESTON     CLOUDY    62  59  90 CALM      29.98F FOG
$$

WVZ022-031-010800-
North Central West Virginia

CITY           SKY/WX    TMP DP  RH WIND       PRES   REMARKS
CLARKSBURG     RAIN      59  58  96 S7        29.98F FOG
MORGANTOWN     LGT RAIN  59  55  87 S5        29.97F
$$

WVZ025-035-042-045-010800-
Southern West Virginia

CITY           SKY/WX    TMP DP  RH WIND       PRES   REMARKS
BECKLEY        HVY RAIN  54  52  93 SE15      30.05F FOG
LOGAN          NOT AVBL
BLUEFIELD      CLOUDY    52  50  93 S5        30.05F
LEWISBURG      RAIN      52  51  98 CALM      30.09F
$$

WVZ047-010800-
Northern Mountains of West Virginia

CITY           SKY/WX    TMP DP  RH WIND       PRES   REMARKS
ELKINS         LGT RAIN  56  52  86 S12       30.03F
$$

WVZ052-010800-
Eastern Panhandle of West Virginia

CITY           SKY/WX    TMP DP  RH WIND       PRES   REMARKS
MARTINSBURG    LGT RAIN  51  50  96 S8        30.09F
PETERSBURG     RAIN      57  54  89 SE6       30.05F
$$




USA.gov is the U.S. government's official web portal to all federal, state and local government web resources and services.